When you browse on this site, cookies collect data to enhance your experience and personalize the content and advertising you see.
Visit our Privacy Policy to learn more. By continuing to use the site, you agree to this use of cookies and data.
  • In Spain
  • List of Countries
  • For 7 days
  • Water Temperature
  • Satellite Maps
  • Weather Map
  • Weather Widgets
  • user-avatar
    Login

    Hourly Weather My Tho

    Today, 19 December, Wednesday

    Time Temperature Precipitation Wind Pressure Humidity
    00:00 +27°C° 0 mm 2 mps 759 mmHg 77%
    01:00 +27°C° 0 mm 2 mps 759 mmHg 77%
    02:00 +27°C° 0 mm 2 mps 759 mmHg 77%
    03:00 +27°C° 0 mm 2 mps 759 mmHg 77%
    04:00 +27°C° 0 mm 2 mps 759 mmHg 77%
    05:00 +27°C° 0 mm 2 mps 759 mmHg 77%
    06:00 +27°C° 0 mm 2 mps 759 mmHg 77%
    07:00 +28°C° 0 mm 1 mps 760 mmHg 77%
    08:00 +29°C° 0 mm 1 mps 760 mmHg 71%
    09:00 +31°C° 0 mm 2 mps 760 mmHg 65%
    10:00 +32°C° 0 mm 2 mps 760 mmHg 59%
    11:00 +34°C° 0 mm 2 mps 759 mmHg 56%
    12:00 +35°C° 0 mm 2 mps 759 mmHg 53%
    13:00 +35°C° 0 mm 2 mps 758 mmHg 52%
    14:00 +35°C° 0 mm 2 mps 758 mmHg 54%
    15:00 +34°C° 0 mm 2 mps 758 mmHg 55%
    16:00 +34°C° 0 mm 2 mps 757 mmHg 57%
    17:00 +32°C° 0 mm 2 mps 758 mmHg 63%
    18:00 +30°C° 0 mm 3 mps 758 mmHg 68%
    19:00 +29°C° 0 mm 3 mps 758 mmHg 74%
    20:00 +29°C° 0 mm 3 mps 759 mmHg 76%
    21:00 +28°C° 0 mm 3 mps 759 mmHg 78%
    22:00 +28°C° 0 mm 3 mps 759 mmHg 80%
    23:00 +28°C° 0 mm 3 mps 759 mmHg 81%

    Tomorrow, 20 December, Thursday

    Time Temperature Precipitation Wind Pressure Humidity
    00:00 +28°C° 0 mm 2 mps 759 mmHg 81%
    01:00 +28°C° 0 mm 2 mps 759 mmHg 81%
    02:00 +27°C° 0 mm 2 mps 759 mmHg 82%
    03:00 +27°C° 0 mm 2 mps 759 mmHg 82%
    04:00 +27°C° 0 mm 2 mps 759 mmHg 83%
    05:00 +27°C° 0 mm 2 mps 759 mmHg 82%
    06:00 +27°C° 0 mm 2 mps 759 mmHg 82%
    07:00 +28°C° 0 mm 2 mps 759 mmHg 81%
    08:00 +29°C° 0 mm 2 mps 759 mmHg 73%
    09:00 +31°C° 0 mm 2 mps 759 mmHg 66%
    10:00 +34°C° 0 mm 2 mps 759 mmHg 58%
    11:00 +34°C° 0 mm 2 mps 759 mmHg 57%
    12:00 +35°C° 0 mm 2 mps 758 mmHg 55%
    13:00 +35°C° 0 mm 2 mps 757 mmHg 54%
    14:00 +35°C° 0.3 mm 2 mps 757 mmHg 57%
    15:00 +34°C° 0.3 mm 2 mps 756 mmHg 59%
    16:00 +34°C° 0.3 mm 2 mps 756 mmHg 61%
    17:00 +31°C° 0.7 mm 3 mps 756 mmHg 68%
    18:00 +30°C° 0.7 mm 3 mps 757 mmHg 76%
    19:00 +28°C° 0.7 mm 3 mps 757 mmHg 83%
    20:00 +28°C° 0.2 mm 3 mps 757 mmHg 85%
    21:00 +27°C° 0.2 mm 2 mps 758 mmHg 87%
    22:00 +27°C° 0.2 mm 2 mps 758 mmHg 88%
    23:00 +27°C° 0 mm 2 mps 758 mmHg 89%

    Day after tomorrow, 21 December, Friday

    Time Temperature Precipitation Wind Pressure Humidity
    00:00 +27°C° 0 mm 2 mps 758 mmHg 90%
    01:00 +27°C° 0 mm 2 mps 757 mmHg 90%
    02:00 +26°C° 0 mm 2 mps 757 mmHg 90%
    03:00 +26°C° 0 mm 2 mps 757 mmHg 90%
    04:00 +26°C° 0 mm 2 mps 757 mmHg 90%
    05:00 +27°C° 0 mm 1 mps 757 mmHg 89%
    06:00 +27°C° 0 mm 1 mps 757 mmHg 88%
    07:00 +27°C° 0 mm 1 mps 758 mmHg 88%
    08:00 +29°C° 0 mm 1 mps 758 mmHg 79%
    09:00 +31°C° 0 mm 1 mps 758 mmHg 71%
    10:00 +32°C° 0 mm 1 mps 759 mmHg 63%
    11:00 +33°C° 0 mm 1 mps 758 mmHg 59%
    12:00 +34°C° 0 mm 1 mps 757 mmHg 56%
    13:00 +35°C° 0 mm 1 mps 756 mmHg 52%
    14:00 +34°C° 0.1 mm 1 mps 756 mmHg 54%
    15:00 +34°C° 0.1 mm 1 mps 755 mmHg 57%
    16:00 +33°C° 0.1 mm 1 mps 755 mmHg 59%
    17:00 +32°C° 0.1 mm 1 mps 755 mmHg 66%
    18:00 +30°C° 0.1 mm 2 mps 756 mmHg 72%
    19:00 +29°C° 0.1 mm 2 mps 756 mmHg 79%
    20:00 +28°C° 0.1 mm 2 mps 757 mmHg 82%
    21:00 +28°C° 0.1 mm 2 mps 757 mmHg 85%
    22:00 +27°C° 0.1 mm 2 mps 758 mmHg 88%
    23:00 +27°C° 0.5 mm 2 mps 757 mmHg 89%

    22 December, Saturday

    Time Temperature Precipitation Wind Pressure Humidity
    00:00 +27°C° 0.5 mm 2 mps 757 mmHg 89%
    01:00 +27°C° 0.5 mm 2 mps 757 mmHg 90%
    02:00 +26°C° 0 mm 2 mps 756 mmHg 91%
    03:00 +26°C° 0 mm 2 mps 756 mmHg 91%
    04:00 +26°C° 0 mm 1 mps 756 mmHg 92%
    05:00 +26°C° 0 mm 1 mps 756 mmHg 91%
    06:00 +27°C° 0 mm 1 mps 757 mmHg 90%
    07:00 +27°C° 0 mm 1 mps 757 mmHg 89%
    08:00 +29°C° 0 mm 1 mps 757 mmHg 80%
    09:00 +31°C° 0 mm 1 mps 757 mmHg 72%
    10:00 +33°C° 0 mm 1 mps 758 mmHg 64%
    11:00 +33°C° 0.1 mm 1 mps 757 mmHg 62%
    12:00 +33°C° 0.1 mm 1 mps 756 mmHg 60%
    13:00 +34°C° 0.1 mm 1 mps 755 mmHg 58%
    14:00 +34°C° 0.1 mm 1 mps 755 mmHg 58%
    15:00 +33°C° 0.1 mm 1 mps 755 mmHg 59%
    16:00 +34°C° 0.1 mm 2 mps 754 mmHg 59%
    17:00 +32°C° 0.1 mm 2 mps 755 mmHg 65%
    18:00 +30°C° 0.1 mm 1 mps 755 mmHg 71%
    19:00 +29°C° 0.1 mm 1 mps 756 mmHg 77%
    20:00 +28°C° 0.7 mm 2 mps 756 mmHg 81%
    21:00 +28°C° 0.7 mm 2 mps 757 mmHg 85%
    22:00 +27°C° 0.7 mm 2 mps 757 mmHg 89%
    23:00 +27°C° 0.7 mm 2 mps 757 mmHg 91%

    23 December, Sunday

    Time Temperature Precipitation Wind Pressure Humidity
    00:00 +27°C° 0.7 mm 2 mps 756 mmHg 92%
    01:00 +26°C° 0.7 mm 2 mps 756 mmHg 93%
    02:00 +26°C° 0 mm 2 mps 756 mmHg 94%
    03:00 +26°C° 0 mm 2 mps 756 mmHg 94%
    04:00 +26°C° 0 mm 2 mps 755 mmHg 94%
    05:00 +26°C° 0 mm 2 mps 756 mmHg 93%
    06:00 +26°C° 0 mm 1 mps 756 mmHg 93%
    07:00 +26°C° 0 mm 1 mps 757 mmHg 92%
    08:00 +28°C° 0 mm 1 mps 757 mmHg 84%
    09:00 +30°C° 0 mm 2 mps 757 mmHg 77%
    10:00 +31°C° 0 mm 2 mps 757 mmHg 69%
    11:00 +32°C° 0.2 mm 2 mps 756 mmHg 66%
    12:00 +34°C° 0.2 mm 2 mps 755 mmHg 64%
    13:00 +34°C° 0.2 mm 2 mps 755 mmHg 61%
    14:00 +33°C° 1.4 mm 3 mps 754 mmHg 65%
    15:00 +33°C° 1.4 mm 3 mps 754 mmHg 69%
    16:00 +31°C° 1.4 mm 3 mps 754 mmHg 74%
    17:00 +29°C° 0.4 mm 3 mps 755 mmHg 78%
    18:00 +28°C° 0.4 mm 3 mps 755 mmHg 81%
    19:00 +27°C° 0.4 mm 3 mps 756 mmHg 85%
    20:00 +27°C° 0.1 mm 2 mps 756 mmHg 84%
    21:00 +27°C° 0.1 mm 2 mps 756 mmHg 83%
    22:00 +27°C° 0.1 mm 2 mps 757 mmHg 81%
    23:00 +27°C° 0.1 mm 1 mps 756 mmHg 82%

    24 December, Monday

    Time Temperature Precipitation Wind Pressure Humidity
    00:00 +26°C° 0.1 mm 1 mps 756 mmHg 83%
    01:00 +26°C° 0.1 mm 1 mps 756 mmHg 83%
    02:00 +26°C° 0 mm 1 mps 756 mmHg 84%
    03:00 +26°C° 0 mm 1 mps 755 mmHg 85%
    04:00 +26°C° 0 mm 1 mps 755 mmHg 86%
    05:00 +26°C° 0 mm 1 mps 756 mmHg 86%
    06:00 +26°C° 0 mm 1 mps 756 mmHg 86%
    07:00 +26°C° 0 mm 1 mps 756 mmHg 86%
    08:00 +28°C° 0 mm 2 mps 757 mmHg 79%
    09:00 +30°C° 0 mm 2 mps 757 mmHg 72%
    10:00 +31°C° 0 mm 2 mps 757 mmHg 65%
    11:00 +32°C° 0.3 mm 2 mps 756 mmHg 62%
    12:00 +33°C° 0.3 mm 1 mps 755 mmHg 59%
    13:00 +34°C° 0.3 mm 1 mps 755 mmHg 57%
    14:00 +33°C° 0.8 mm 1 mps 754 mmHg 59%
    15:00 +32°C° 0.8 mm 1 mps 754 mmHg 62%
    16:00 +32°C° 0.8 mm 1 mps 754 mmHg 65%
    17:00 +31°C° 0.3 mm 1 mps 754 mmHg 71%
    18:00 +29°C° 0.3 mm 1 mps 755 mmHg 76%
    19:00 +28°C° 0.3 mm 1 mps 755 mmHg 82%
    20:00 +27°C° 0 mm 2 mps 756 mmHg 83%
    21:00 +27°C° 0 mm 2 mps 756 mmHg 85%
    22:00 +27°C° 0 mm 2 mps 756 mmHg 86%
    23:00 +27°C° 0.2 mm 2 mps 756 mmHg 87%
    Show more